Epoch 2006 Sept. 22.0 TT = JDT 2454000.5 MPC M 26.39147 (2000.0) P Q n 0.24789389 Peri. 210.61412 -0.93322758 -0.18095182 a 2.5097214 Node 315.31639 +0.34656756 -0.68120018 e 0.9557586 Incl. 26.19348 -0.09474819 -0.70938195 P 3.98 H 19.1 G 0.15 U 4
H = 19.1 G = 0.15